Zurück zum Katalog

METEOR 3-3

AktivWetterPO
NORAD 20305·PAYLOAD·🇷🇺 Russia

Gestartet Oct 24, 1989 von Plesetsk Cosmodrome

Loading…

Nächste Überflüge (nächste 24 Stunden)

TLE

AktuellSource: Space-Track

Epoche: Sep 14, 2026, 08:43 UTC

1 20305U 89086A   26257.36334194 -.00000736  00000-0 -23265-2 0  9994
2 20305  82.5508  45.2889 0006047 312.6834  73.7078 13.04704566758244

Verfolge METEOR 3-3 in Echtzeit mit AllMySat

Download on the App Store